Simultaneous Nadir Overpasses (SNOs) Predictions

Prediction of SNOs between LANDSAT-8 and METOP-B Satellite Orbit:

Table of predicted SNOs for the next 14.0 days since TLE Epoch: 11/14/2025
Index Date (LANDSAT-8) Time (LANDSAT-8) Lat,Lon (LANDSAT-8) SZA (LANDSAT-8 ) Date (METOP-B) Time (METOP-B) Lat,Lon (METOP-B) SZA (METOP-B ) Distance(km) Time Diff (sec)
1 11/17/2025 13:48:32 -81.35,-163.30 76.85 11/17/2025 13:47:39 -81.36,-163.13 76.85 2.86 53
2 11/17/2025 14:37:58 81.36, 4.43 103.17 11/17/2025 14:38:20 81.36, 4.39 103.18 0.67 22
3 11/20/2025 09:22:48 -81.35, -96.89 76.22 11/20/2025 09:22:18 -81.36, -96.84 76.23 1.13 30
4 11/20/2025 10:12:14 81.35, 70.80 103.80 11/20/2025 10:12:59 81.36, 70.69 103.81 1.94 45
5 11/23/2025 04:57:02 -81.35, -30.45 75.64 11/23/2025 04:56:55 -81.36, -30.30 75.62 2.66 7
6 11/23/2025 05:46:28 81.35, 137.22 104.38 11/23/2025 05:47:36 81.36, 137.24 104.42 0.87 68
7 11/25/2025 23:41:49 81.35,-131.62 104.90 11/25/2025 23:40:54 81.36,-131.78 104.86 2.73 55
8 11/26/2025 00:31:16 -81.35, 36.04 75.10 11/26/2025 00:31:33 -81.36, 36.11 75.08 1.42 17
9 11/28/2025 19:16:02 81.36, -65.10 105.38 11/28/2025 19:15:31 81.36, -65.10 105.37 0.22 31



Historial Predications of SNOs between LANDSAT-8 and METOP-B
